Location: Zagreb
(45.8000°N, 16.0000°E)
Time: 19:21:49
(UTC+02:00)

Tiros 1 despin weight - Pass Details

Date: 13 August 2022
Orbit: 591 x 638 km, 48.2° (Epoch: 06 October)

Event Time Altitude Azimuth Distance (km) Brightness Sun altitude
Rises 15:12:47 0° 274° (W) 2,844 ? 48.3°
Reaches altitude 10° 15:15:07 10° 278° (W) 1,935 ? 48.0°
Maximum altitude 15:19:31 63° 360° (N) 666 ? 47.3°
Drops below altitude 10° 15:23:52 10° 82° (E) 1,919 ? 46.7°
Sets 15:26:10 0° 86° (E) 2,819 ? 46.4°
